Preston, MN

2:02 PM CDT on June 25, 2017 (GMT -0500)
Preston

Weather History for KFKA - October, 2011

Change the Weather History Date:

Sunday, October 30, 2011

  Actual Average (KRST) Record (KRST)
Temperature  
Mean Temperature 48 °F -  
Max Temperature 54 °F 51 °F 79 °F (1950)
Min Temperature 42 °F 33 °F 11 °F (1988)
Degree Days  
Heating Degree Days 17    
Moisture  
Dew Point 35 °F    
Average Humidity 64    
Maximum Humidity 90    
Minimum Humidity 36    
Precipitation  
Precipitation 0.00 in - - ()
Sea Level Pressure  
Sea Level Pressure 29.85 in    
Wind  
Wind Speed 11 mph (SSW)    
Max Wind Speed 21 mph    
Max Gust Speed 28 mph    
Visibility 10 miles    
Events Rain    
Averages and records for this station are not official NWS values.
T = Trace of Precipitation, MM = Missing Value Source: NWS Daily Summary

Daily Weather History Graph

Daily Weather History Graph

Search for Another Location

Airport or City:

Trip Planner

Search our weather history database for the weather conditions in past years. The results will help you decide how hot, cold, wet, or windy it might be!

Date:

Astronomy

Oct. 30, 2011 Rise Set
Actual Time 7:41 AM CDT 6:02 PM CDT
Civil Twilight 7:11 AM CDT 6:32 PM CDT
Nautical Twilight 6:38 AM CDT 7:05 PM CDT
Astronomical Twilight 6:04 AM CDT 7:39 PM CDT
Moon 12:06 PM CDT (10/30) 9:26 PM CDT (10/30)
Length of Visible Light 11h 20m
Length of Day
10h 20m
Waxing Crescent, 20% of the Moon is Illuminated
Oct 30
Waxing Crescent
Nov 2
First Quarter
Nov 10
Full
Nov 18
Last Quarter
Nov 25
New

Hourly Weather History & Observations

Time (CDT) Temp. Windchill Dew Point Humidity Pressure Visibility Wind Dir Wind Speed Gust Speed Precip Events Conditions
12:12 AM 47.3 °F - 23.5 °F 39% 29.95 in 10.0 mi SE 10.4 mph - N/A   Overcast
12:32 AM 47.5 °F - 23.5 °F 39% 29.95 in 10.0 mi SE 9.2 mph - N/A   Overcast
12:52 AM 47.8 °F - 23.7 °F 39% 29.94 in 10.0 mi SSE 8.1 mph - N/A   Overcast
1:13 AM 48.9 °F - 23.5 °F 37% 29.93 in 10.0 mi SSE 9.2 mph - N/A   Overcast
1:32 AM 49.1 °F - 23.4 °F 36% 29.93 in 10.0 mi SE 10.4 mph 18.4 mph N/A   Overcast
1:53 AM 48.9 °F - 23.7 °F 37% 29.92 in 10.0 mi SE 10.4 mph 16.1 mph N/A   Overcast
2:12 AM 49.1 °F - 23.9 °F 37% 29.91 in 10.0 mi SE 11.5 mph 18.4 mph N/A   Overcast
3:12 AM 49.1 °F - 24.3 °F 38% 29.88 in 10.0 mi SE 11.5 mph 18.4 mph N/A   Overcast
3:32 AM 49.1 °F - 24.6 °F 38% 29.87 in 10.0 mi SE 10.4 mph 17.3 mph N/A   Overcast
3:52 AM 48.6 °F - 25.0 °F 40% 29.87 in 10.0 mi SE 13.8 mph 18.4 mph N/A   Overcast
4:12 AM 47.3 °F - 28.9 °F 49% 29.86 in 10.0 mi SE 12.7 mph 20.7 mph N/A Rain Light Rain
4:32 AM 47.3 °F - 28.6 °F 48% 29.85 in 10.0 mi SE 11.5 mph 18.4 mph N/A   Overcast
4:52 AM 46.9 °F - 29.5 °F 51% 29.85 in 10.0 mi SE 10.4 mph - N/A   Overcast
5:13 AM 46.9 °F - 30.0 °F 52% 29.85 in 10.0 mi SE 9.2 mph - N/A Rain Light Rain
5:33 AM 46.0 °F 40.6 °F 31.5 °F 57% 29.84 in 10.0 mi SE 11.5 mph 16.1 mph N/A   Overcast
5:53 AM 45.7 °F 41.0 °F 32.0 °F 59% 29.84 in 10.0 mi SSE 9.2 mph - N/A   Overcast
6:13 AM 45.5 °F 40.8 °F 32.0 °F 59% 29.84 in 10.0 mi South 9.2 mph - N/A   Overcast
6:32 AM 45.0 °F 38.9 °F 32.9 °F 63% 29.83 in 10.0 mi SSE 12.7 mph 19.6 mph N/A   Overcast
6:53 AM 44.2 °F 38.4 °F 34.2 °F 68% 29.84 in 10.0 mi SSE 11.5 mph 17.3 mph N/A   Overcast
7:12 AM 43.9 °F 38.8 °F 35.2 °F 72% 29.83 in 10.0 mi SSE 9.2 mph - N/A   Overcast
7:33 AM 43.7 °F 38.6 °F 35.8 °F 74% 29.83 in 10.0 mi SSE 9.2 mph - N/A   Overcast
8:12 AM 42.8 °F 36.6 °F 37.4 °F 81% 29.82 in 10.0 mi SSE 11.5 mph 16.1 mph N/A   Overcast
8:32 AM 42.8 °F 36.6 °F 38.3 °F 84% 29.82 in 10.0 mi SSE 11.5 mph - N/A   Overcast
8:52 AM 42.8 °F 37.0 °F 38.7 °F 85% 29.82 in 10.0 mi SSE 10.4 mph - N/A   Overcast
9:12 AM 43.0 °F 38.8 °F 39.2 °F 86% 29.81 in 10.0 mi SE 6.9 mph - N/A   Mostly Cloudy
9:32 AM 43.3 °F 38.6 °F 39.9 °F 88% 29.80 in 10.0 mi SSE 8.1 mph - N/A   Overcast
9:53 AM 43.9 °F 39.3 °F 40.5 °F 88% 29.81 in 10.0 mi SSE 8.1 mph - N/A   Overcast
10:13 AM 44.4 °F 40.5 °F 41.2 °F 88% 29.81 in 10.0 mi SSE 6.9 mph - N/A   Overcast
10:32 AM 45.0 °F 42.6 °F 41.9 °F 89% 29.81 in 10.0 mi SSE 4.6 mph - N/A   Overcast
10:52 AM 45.5 °F 42.5 °F 42.6 °F 90% 29.80 in 10.0 mi South 5.8 mph - N/A   Overcast
11:12 AM 46.8 °F - 43.7 °F 89% 29.80 in 10.0 mi South 4.6 mph - N/A   Overcast
11:32 AM 48.6 °F - 44.2 °F 85% 29.79 in 10.0 mi South 5.8 mph - N/A   Mostly Cloudy
11:53 AM 50.0 °F - 42.3 °F 75% 29.79 in 10.0 mi SSW 10.4 mph - N/A   Mostly Cloudy
12:32 PM 53.4 °F - 37.6 °F 55% 29.78 in 10.0 mi WNW 9.2 mph - N/A   Mostly Cloudy
12:52 PM 54.9 °F - 35.1 °F 47% 29.78 in 10.0 mi WNW 10.4 mph - N/A   Mostly Cloudy
1:12 PM 54.7 °F - 34.0 °F 46% 29.77 in 10.0 mi West 16.1 mph 20.7 mph N/A   Mostly Cloudy
1:32 PM 54.7 °F - 31.1 °F 41% 29.77 in 10.0 mi WNW 16.1 mph - N/A   Mostly Cloudy
2:12 PM 53.1 °F - 36.3 °F 53% 29.79 in 10.0 mi WNW 20.7 mph 26.5 mph N/A   Mostly Cloudy
2:32 PM 51.1 °F - 38.3 °F 62% 29.80 in 10.0 mi WNW 16.1 mph 27.6 mph N/A   Overcast
2:52 PM 50.0 °F - 39.2 °F 66% 29.80 in 10.0 mi WNW 12.7 mph - N/A   Overcast
3:32 PM 48.6 °F - 39.2 °F 70% 29.82 in 10.0 mi WNW 18.4 mph 25.3 mph N/A   Overcast
3:53 PM 48.2 °F - 38.5 °F 69% 29.82 in 10.0 mi WNW 15.0 mph 23.0 mph N/A   Overcast
4:12 PM 48.2 °F - 37.9 °F 68% 29.83 in 10.0 mi WNW 18.4 mph 23.0 mph N/A   Overcast
4:32 PM 48.2 °F - 37.8 °F 67% 29.84 in 10.0 mi WNW 13.8 mph 21.9 mph N/A   Overcast
4:52 PM 48.2 °F - 37.4 °F 66% 29.84 in 10.0 mi WNW 13.8 mph 21.9 mph N/A   Overcast
5:13 PM 47.7 °F - 37.2 °F 67% 29.85 in 10.0 mi West 16.1 mph 19.6 mph N/A   Overcast
5:32 PM 46.6 °F - 38.1 °F 72% 29.86 in 10.0 mi WNW 15.0 mph 19.6 mph N/A   Overcast
6:12 PM 46.4 °F 39.5 °F 36.5 °F 68% 29.88 in 10.0 mi WNW 17.3 mph 23.0 mph N/A   Overcast
6:33 PM 46.6 °F - 36.0 °F 67% 29.89 in 10.0 mi WNW 12.7 mph - N/A   Overcast
6:52 PM 46.4 °F 39.8 °F 35.8 °F 67% 29.89 in 10.0 mi WNW 16.1 mph - N/A   Overcast
7:32 PM 46.0 °F 39.9 °F 36.5 °F 69% 29.91 in 10.0 mi WNW 13.8 mph - N/A   Overcast
7:52 PM 45.5 °F 39.9 °F 37.4 °F 73% 29.91 in 10.0 mi WNW 11.5 mph - N/A   Overcast
8:12 PM 45.1 °F 39.1 °F 37.4 °F 74% 29.91 in 10.0 mi WNW 12.7 mph 19.6 mph N/A   Overcast
8:32 PM 44.8 °F 39.9 °F 37.8 °F 76% 29.91 in 10.0 mi WNW 9.2 mph - N/A   Overcast
8:52 PM 44.6 °F 38.4 °F 37.9 °F 77% 29.91 in 10.0 mi WNW 12.7 mph - N/A   Overcast
9:12 PM 44.2 °F 38.8 °F 37.9 °F 79% 29.91 in 10.0 mi WNW 10.4 mph 18.4 mph N/A   Overcast
9:33 PM 44.1 °F 38.1 °F 37.9 °F 79% 29.91 in 10.0 mi WNW 11.5 mph - N/A   Overcast
9:52 PM 44.1 °F 38.1 °F 37.9 °F 79% 29.92 in 10.0 mi WNW 11.5 mph - N/A   Overcast
10:12 PM 43.9 °F 37.5 °F 37.9 °F 80% 29.92 in 10.0 mi WNW 12.7 mph - N/A   Overcast
10:32 PM 43.9 °F 37.2 °F 38.1 °F 80% 29.92 in 10.0 mi WNW 13.8 mph - N/A   Overcast
10:52 PM 43.7 °F 38.1 °F 38.3 °F 81% 29.92 in 10.0 mi WNW 10.4 mph - N/A   Overcast
11:12 PM 43.7 °F 38.1 °F 38.3 °F 81% 29.92 in 10.0 mi NW 10.4 mph - N/A   Overcast
11:32 PM 43.7 °F 38.6 °F 38.3 °F 81% 29.92 in 10.0 mi NW 9.2 mph - N/A   Overcast
11:52 PM 43.7 °F 37.7 °F 38.3 °F 81% 29.92 in 10.0 mi NW 11.5 mph - N/A   Overcast